Location: Newark
(41.5333°N, 14.5500°E)
Time: 12:55:39
(UTC+00:00)

X-37B - Pass Details

Date: 13 March 2021
Orbit: 380 x 394 km, 45.0° (Epoch: 07 April)

Event Time Altitude Azimuth Distance (km) Brightness Sun altitude
Rises 18:55:15 0° 259° (W) 2,268 5.5 -21.0°
Reaches altitude 10° 18:57:19 10° 263° (W) 1,417 4.4 -21.4°
Enters shadow 19:00:00 52° 298° (WNW) 490 1.3 -21.8°
